User: anonymous   Login
Location: Fazenda Monte Alegre
(4.8500°S, 38.0333°W)
Time: 13:24:19
(UTC+00:00)
Language:

GP-B - Orbit

View from above orbital plane
View from above orbital plane
View from above satellite
View from above satellite

Ground track
Ground track

The orbit data is extracted from the following two-line orbital elements,

1 28230U 04014A   21207.13733573  .00000151  00000-0  18265-4 0  9991
2 28230  89.8134  89.3118 0002412 104.0787 256.0705 14.78823646930743
Epoch (UTC): 26 July 2021 03:17:45
Eccentricity: 0.0002412
inclination: 89.8134°
perigee height: 631 km
apogee height: 635 km
right ascension of ascending node: 89.3118°
argument of perigee: 104.0787°
revolutions per day: 14.78823646
mean anomaly at epoch: 256.0705°
orbit number at epoch: 93074

The dashed part of the orbit path shows where the satellite is in the earth's shadow,  

DLR